This demonstration page uses our WeatherBlox Daily Observations layout. Learn more.

Left ArrowRight Arrow

Hourly Observations for December 6, 2016

Temp ( °F °C ) Dew Point ( °F °C ) Humidity (%) Winds ( mph kmh ) Pressure ( in mb ) Visibility ( mi km ) Precip ( " mm )
12:05 am 00:05 Cloudy 5 -15 -2 -18.9 72 72 WNW 10 17 30.45 1031 10 16 0.00 0.00
12:25 am 00:25 Mostly Cloudy 4 -15.6 -2 -18.9 76 76 NW 14 22 30.45 1031 10 16 0.00 0.00
12:44 am 00:44 Partly Cloudy 3 -16 -2 -19 78 78 NW 12 19 30.45 1031 10 16 0.00 0.00
12:53 am 00:53 Mostly Cloudy 4 -15.6 -3 -19.4 73 73 NW 10 17 30.36 1028 10 16 0.00 0.00
1:04 am 01:04 Partly Cloudy 3 -16 -2 -19 78 78 NW 8 13 30.45 1031 10 16 0.00 0.00
1:53 am 01:53 Cloudy 3 -16.1 -3 -19.4 76 76 NW 10 17 30.37 1028 10 16 0.00 0.00
2:33 am 02:33 Cloudy 2 -16.7 -4 -20 76 76 NW 12 19 30.50 1033 7 11 0.00 0.00
2:48 am 02:48 Cloudy 1 -17 -4 -20 78 78 NW 10 17 30.50 1033 10 16 0.00 0.00
2:53 am 02:53 Cloudy 2 -16.7 -4 -20 76 76 WNW 10 17 30.37 1029 10 16 0.00 0.00
3:53 am 03:53 Cloudy 1 -17.2 -5 -20.6 75 75 NW 15 24 30.39 1029 7 11 0.00 0.00
4:53 am 04:53 Mostly Cloudy 0 -17.8 -7 -21.7 72 72 WNW 12 19 30.40 1030 10 16 0.00 0.00
5:53 am 05:53 Cloudy with Light Snow -1 -18.3 -7 -21.7 75 75 WNW 12 19 30.41 1030 6 10 0.00 0.03
6:36 am 06:36 Mostly Cloudy 0 -18 -8 -22 71 71 NW 9 15 30.56 1035 10 16 0.00 0.00
6:53 am 06:53 Cloudy -1 -18.3 -7 -21.7 75 75 NW 9 15 30.42 1030 10 16 0.00 0.03
7:25 am 07:25 Mostly Cloudy 0 -17.8 -7 -21.7 72 72 WNW 8 13 30.53 1034 10 16 0.00 0.00
7:53 am 07:53 Cloudy 0 -17.8 -6 -21.1 76 76 WNW 6 9 30.42 1030 10 16 0.00 0.00
8:53 am 08:53 Cloudy with Haze -1 -18.3 -6 -21.1 79 79 WNW 9 15 30.43 1031 6 10 0.00 0.00
9:53 am 09:53 Mostly Cloudy 1 -17.2 -7 -21.7 68 68 NW 17 28 30.44 1031 10 16 0.00 0.00
10:53 am 10:53 Mostly Cloudy 1 -17.2 -7 -21.7 68 68 WNW 14 22 30.44 1031 10 16 0.00 0.00
11:53 am 11:53 Cloudy 1 -17.2 -7 -21.7 68 68 WNW 18 30 30.43 1030 10 16 0.00 0.00
12:53 pm 12:53 Cloudy 2 -16.7 -6 -21.1 69 69 NW 15 24 30.42 1030 10 16 0.00 0.00
1:53 pm 13:53 Cloudy 4 -15.6 -5 -20.6 66 66 NW 16 26 30.42 1030 10 16 0.00 0.00
2:17 pm 14:17 Cloudy 2 -16.7 -6 -21.1 69 69 NW 12 19 30.53 1034 10 16 0.00 0.00
2:53 pm 14:53 Mostly Cloudy 2 -16.7 -7 -21.7 65 65 WNW 15 24 30.44 1031 10 16 0.00 0.00
3:17 pm 15:17 Partly Cloudy 2 -16.7 -8 -22.2 63 63 NW 12 19 30.56 1035 10 16 0.00 0.00
3:53 pm 15:53 Mostly Cloudy 1 -17.2 -7 -21.7 68 68 NNW 9 15 30.45 1031 10 16 0.00 0.00
4:35 pm 16:35 Mostly Cloudy 0 -17.8 -7 -21.7 72 72 NW 14 22 30.59 1036 10 16 0.00 0.00
4:53 pm 16:53 Partly Cloudy 0 -17.8 -8 -22.2 69 69 NW 9 15 30.49 1032 10 16 0.00 0.00
5:53 pm 17:53 Mostly Clear -1 -18.3 -8 -22.2 72 72 W 6 9 30.51 1033 10 16 0.00 0.00
6:53 pm 18:53 Cloudy 0 -17.8 -8 -22.2 69 69 NW 15 24 30.53 1034 10 16 0.00 0.00
7:53 pm 19:53 Cloudy 1 -17.2 -6 -21.1 72 72 WNW 9 15 30.53 1034 10 16 0.00 0.00
8:53 pm 20:53 Mostly Cloudy 0 -17.8 -7 -21.7 72 72 WNW 10 17 30.54 1034 10 16 0.00 0.00
9:53 pm 21:53 Cloudy 1 -17.2 -6 -21.1 72 72 WNW 10 17 30.55 1035 10 16 0.00 0.00
10:26 pm 22:26 Cloudy 1 -17 -6 -21 71 71 WNW 14 22 30.68 1039 10 16 0.00 0.00
10:53 pm 22:53 Cloudy 1 -17.2 -5 -20.6 75 75 WNW 13 20 30.57 1035 9 14 0.00 0.00
11:53 pm 23:53 Cloudy 1 -17.2 -6 -21.1 72 72 WNW 9 15 30.58 1036 10 16 0.00 0.00

Powered by AerisWeather